Sauk Centre, MN

3:00 PM CST on December 06, 2019 (GMT -0600)
Sauk Centre

Weather History for KD39 - September, 2019

Change the Weather History Date:

Thursday, September 5, 2019

  Actual Average (KGHW) Record (KGHW)
Temperature  
Mean Temperature 66 °F -  
Max Temperature 80 °F 77 °F 94 °F (1960)
Min Temperature 53 °F 50 °F 36 °F (1962)
Cooling Degree Days 1    
Growing Degree Days 16 (Base 50)    
Moisture  
Dew Point 59 °F    
Average Humidity 81    
Maximum Humidity 95    
Minimum Humidity 62    
Precipitation  
Precipitation 0.00 in - - ()
Sea Level Pressure  
Sea Level Pressure 29.97 in    
Wind  
Wind Speed 9 mph ()    
Max Wind Speed 23 mph    
Max Gust Speed 29 mph    
Visibility 10.0 miles    
Events      
Averages and records for this station are not official NWS values.
T = Trace of Precipitation, MM = Missing Value Source: Averaged Metar Reports

Daily Weather History Graph

Daily Weather History Graph

Search for Another Location

Airport or City:

Astronomy

Sep. 05, 2019 Rise Set
Actual Time 6:45 AM CDT 7:50 PM CDT
Civil Twilight 6:15 AM CDT 8:20 PM CDT
Nautical Twilight 5:38 AM CDT 8:57 PM CDT
Astronomical Twilight 4:59 AM CDT 9:35 PM CDT
Moon 2:14 PM CDT (9/5) 11:44 PM CDT (9/5)
Length of Visible Light 14h 05m
Length of Day
13h 04m
Waxing Crescent, 45% of the Moon is Illuminated
Sep 5
Waxing Crescent
Sep 5
First Quarter
Sep 13
Full
Sep 21
Last Quarter
Sep 28
New

Hourly Weather History & Observations

Time (CDT) Temp. Dew Point Humidity Pressure Visibility Wind Dir Wind Speed Gust Speed Precip Events Conditions
12:18 AM 54.9 °F 52.7 °F 92% 30.07 in 10.0 mi East 4.6 mph - N/A   Clear
12:36 AM 54.9 °F 52.9 °F 93% 30.07 in 10.0 mi East 4.6 mph - N/A   Clear
12:56 AM 54.7 °F 52.7 °F 93% 30.07 in 10.0 mi ESE 4.6 mph - N/A   Clear
1:15 AM 53.2 °F 52.0 °F 95% 30.07 in 10.0 mi SE 6.9 mph - N/A   Clear
1:16 AM 53.2 °F 52.0 °F 95% 30.07 in 10.0 mi ESE 6.9 mph - N/A   Clear
1:35 AM 54.5 °F 53.1 °F 95% 30.07 in 10.0 mi East 4.6 mph - N/A   Clear
1:36 AM 54.7 °F 53.1 °F 94% 30.07 in 10.0 mi East 4.6 mph - N/A   Clear
1:59 AM 54.5 °F 52.7 °F 94% 30.06 in 10.0 mi SE 6.9 mph - N/A   Clear
2:16 AM 55.0 °F 52.9 °F 92% 30.06 in 10.0 mi SE 5.8 mph - N/A   Clear
2:36 AM 54.5 °F 52.7 °F 94% 30.05 in 10.0 mi SE 5.8 mph - N/A   Clear
2:56 AM 54.7 °F 52.7 °F 93% 30.04 in 10.0 mi SSE 5.8 mph - N/A   Clear
3:16 AM 54.5 °F 52.7 °F 94% 30.04 in 10.0 mi SSE 5.8 mph - N/A   Clear
3:39 AM 54.1 °F 52.3 °F 94% 30.03 in 10.0 mi SE 5.8 mph - N/A   Clear
3:56 AM 53.8 °F 52.3 °F 95% 30.03 in 10.0 mi SSE 5.8 mph - N/A   Scattered Clouds
4:18 AM 53.4 °F 52.2 °F 95% 30.01 in 10.0 mi SSE 5.8 mph - N/A   Scattered Clouds
4:37 AM 54.3 °F 52.9 °F 95% 30.00 in 10.0 mi SE 9.2 mph - N/A   Clear
4:56 AM 54.5 °F 52.9 °F 94% 29.99 in 10.0 mi SSE 6.9 mph - N/A   Scattered Clouds
5:15 AM 55.2 °F 53.6 °F 94% 29.99 in 10.0 mi SSE 8.1 mph - N/A   Mostly Cloudy
5:16 AM 55.4 °F 53.6 °F 94% 29.99 in 10.0 mi SSE 9.2 mph - N/A   Mostly Cloudy
5:35 AM 55.6 °F 53.8 °F 94% 29.98 in 10.0 mi SSE 10.4 mph - N/A   Mostly Cloudy
5:55 AM 56.7 °F 54.5 °F 92% 29.96 in 10.0 mi SSE 15.0 mph - N/A   Mostly Cloudy
5:59 AM 56.7 °F 54.5 °F 92% 29.96 in 10.0 mi SSE 17.3 mph 21.9 mph N/A   Mostly Cloudy
6:19 AM 56.7 °F 54.5 °F 92% 29.96 in 10.0 mi SSE 13.8 mph 19.6 mph N/A   Clear
6:37 AM 56.5 °F 54.5 °F 93% 29.95 in 10.0 mi SSE 11.5 mph - N/A   Clear
6:56 AM 56.3 °F 54.5 °F 94% 29.95 in 10.0 mi SSE 9.2 mph - N/A   Clear
7:15 AM 56.3 °F 54.5 °F 94% 29.95 in 10.0 mi SSE 10.4 mph - N/A   Clear
7:35 AM 56.3 °F 54.5 °F 94% 29.97 in 10.0 mi SSE 5.8 mph - N/A   Clear
7:59 AM 57.2 °F 55.4 °F 94% 29.97 in 10.0 mi SE 8.1 mph - N/A   Clear
8:16 AM 58.3 °F 55.6 °F 91% 29.97 in 10.0 mi SE 8.1 mph - N/A   Clear
8:36 AM 59.2 °F 56.3 °F 90% 29.96 in 10.0 mi SE 6.9 mph - N/A   Clear
8:55 AM 60.6 °F 56.8 °F 87% 29.96 in 10.0 mi SE 11.5 mph - N/A   Clear
8:56 AM 60.8 °F 56.8 °F 87% 29.96 in 10.0 mi SE 11.5 mph - N/A   Clear
9:15 AM 61.7 °F 57.4 °F 86% 29.97 in 10.0 mi SE 8.1 mph - N/A   Scattered Clouds
9:20 AM 62.1 °F 57.6 °F 85% 29.97 in 10.0 mi SE 11.5 mph - N/A   Scattered Clouds
9:37 AM 62.1 °F 57.9 °F 86% 29.97 in 10.0 mi SE 10.4 mph 16.1 mph N/A   Overcast
9:56 AM 62.6 °F 57.9 °F 85% 29.96 in 10.0 mi SSE 11.5 mph - N/A   Overcast
10:15 AM 63.5 °F 58.8 °F 85% 29.95 in 10.0 mi SSE 13.8 mph - N/A   Overcast
10:16 AM 63.5 °F 58.8 °F 85% 29.95 in 10.0 mi SSE 11.5 mph 16.1 mph N/A   Overcast
10:35 AM 64.6 °F 58.8 °F 82% 29.94 in 10.0 mi SSE 12.7 mph 18.4 mph N/A   Overcast
10:36 AM 64.6 °F 58.8 °F 82% 29.94 in 10.0 mi SSE 11.5 mph 18.4 mph N/A   Overcast
10:59 AM 66.0 °F 59.4 °F 79% 29.94 in 10.0 mi SSE 12.7 mph - N/A   Overcast
11:36 AM 68.2 °F 60.6 °F 77% 29.94 in 10.0 mi South 12.7 mph - N/A   Scattered Clouds
11:55 AM 70.2 °F 61.7 °F 74% 29.94 in 10.0 mi South 13.8 mph 17.3 mph N/A   Scattered Clouds
11:56 AM 70.2 °F 61.5 °F 74% 29.94 in 10.0 mi SSE 13.8 mph 17.3 mph N/A   Scattered Clouds
12:15 PM 71.1 °F 62.4 °F 74% 29.92 in 10.0 mi South 15.0 mph 18.4 mph N/A   Mostly Cloudy
12:19 PM 71.4 °F 62.6 °F 74% 29.92 in 10.0 mi South 13.8 mph - N/A   Scattered Clouds
12:38 PM 73.0 °F 63.5 °F 72% 29.92 in 10.0 mi South 10.4 mph - N/A   Mostly Cloudy
12:55 PM 72.0 °F 63.7 °F 75% 29.92 in 10.0 mi SSW 8.1 mph 16.1 mph N/A   Overcast
1:15 PM 73.0 °F 64.0 °F 73% 29.91 in 10.0 mi South 11.5 mph - N/A   Overcast
1:16 PM 73.0 °F 63.9 °F 73% 29.91 in 10.0 mi SSW 10.4 mph - N/A   Overcast
1:35 PM 73.0 °F 64.2 °F 74% 29.92 in 10.0 mi SW 9.2 mph - N/A   Overcast
1:36 PM 73.0 °F 64.2 °F 74% 29.92 in 10.0 mi SSW 9.2 mph - N/A   Overcast
1:59 PM 75.2 °F 65.1 °F 71% 29.90 in 10.0 mi SSW 11.5 mph - N/A   Scattered Clouds
2:16 PM 75.2 °F 65.1 °F 71% 29.91 in 10.0 mi SSW 10.4 mph - N/A   Scattered Clouds
2:36 PM 76.1 °F 65.3 °F 69% 29.91 in 10.0 mi WSW 11.5 mph 18.4 mph N/A   Mostly Cloudy
2:55 PM 75.9 °F 66.4 °F 72% 29.91 in 10.0 mi SW 9.2 mph - N/A   Overcast
2:57 PM 76.1 °F 66.4 °F 72% 29.91 in 10.0 mi SSW 10.4 mph - N/A   Overcast
3:15 PM 76.8 °F 66.6 °F 70% 29.90 in 10.0 mi SW 8.1 mph - N/A   Mostly Cloudy
3:16 PM 76.6 °F 66.4 °F 70% 29.90 in 10.0 mi SSW 8.1 mph - N/A   Mostly Cloudy
3:39 PM 78.1 °F 67.5 °F 70% 29.90 in 10.0 mi SW 11.5 mph - N/A   Scattered Clouds
3:56 PM 78.8 °F 67.5 °F 68% 29.90 in 10.0 mi SW 12.7 mph - N/A   Mostly Cloudy
4:15 PM 79.2 °F 66.7 °F 66% 29.90 in 10.0 mi West 11.5 mph - N/A   Mostly Cloudy
4:35 PM 79.5 °F 67.1 °F 66% 29.89 in 10.0 mi WSW 13.8 mph - N/A   Scattered Clouds
4:55 PM 79.5 °F 67.3 °F 66% 29.89 in 10.0 mi West 15.0 mph 21.9 mph N/A   Mostly Cloudy
4:56 PM 79.7 °F 67.3 °F 66% 29.89 in 10.0 mi WSW 17.3 mph 21.9 mph N/A   Mostly Cloudy
5:19 PM 79.2 °F 65.3 °F 62% 29.89 in 10.0 mi West 11.5 mph 17.3 mph N/A   Mostly Cloudy
5:37 PM 78.3 °F 64.2 °F 62% 29.90 in 10.0 mi WNW 15.0 mph 24.2 mph N/A   Scattered Clouds
5:55 PM 76.6 °F 63.7 °F 64% 29.91 in 10.0 mi WNW 20.7 mph 26.5 mph N/A   Scattered Clouds
6:15 PM 74.8 °F 62.4 °F 65% 29.92 in 10.0 mi NW 20.7 mph 26.5 mph N/A   Clear
6:16 PM 74.8 °F 62.6 °F 66% 29.92 in 10.0 mi NW 23.0 mph 26.5 mph N/A   Clear
6:35 PM 72.3 °F 59.9 °F 65% 29.93 in 10.0 mi WNW 20.7 mph 28.8 mph N/A   Clear
6:36 PM 72.1 °F 59.5 °F 64% 29.94 in 10.0 mi WNW 19.6 mph 28.8 mph N/A   Clear
6:55 PM 70.5 °F 59.4 °F 68% 29.94 in 10.0 mi WNW 16.1 mph 24.2 mph N/A   Clear
7:19 PM 69.1 °F 59.5 °F 72% 29.96 in 10.0 mi WNW 17.3 mph 21.9 mph N/A   Mostly Cloudy
7:36 PM 68.0 °F 59.0 °F 73% 29.96 in 10.0 mi NW 13.8 mph - N/A   Mostly Cloudy
7:56 PM 66.9 °F 59.0 °F 76% 29.97 in 10.0 mi WNW 11.5 mph 18.4 mph N/A   Mostly Cloudy
8:15 PM 66.2 °F 59.0 °F 78% 29.97 in 10.0 mi WNW 11.5 mph 18.4 mph N/A   Mostly Cloudy
8:16 PM 66.0 °F 59.0 °F 78% 29.97 in 10.0 mi WNW 12.7 mph 18.4 mph N/A   Mostly Cloudy
8:35 PM 65.5 °F 58.8 °F 79% 29.97 in 10.0 mi WNW 11.5 mph - N/A   Clear
8:39 PM 65.3 °F 58.6 °F 79% 29.97 in 10.0 mi WNW 12.7 mph 18.4 mph N/A   Clear
8:57 PM 64.9 °F 58.6 °F 80% 29.98 in 10.0 mi NW 13.8 mph - N/A   Scattered Clouds
9:17 PM 64.9 °F 59.0 °F 81% 29.99 in 10.0 mi NW 13.8 mph - N/A   Mostly Cloudy
9:36 PM 65.1 °F 59.0 °F 81% 30.00 in 10.0 mi NW 12.7 mph 21.9 mph N/A   Overcast
9:55 PM 64.9 °F 58.6 °F 80% 30.00 in 10.0 mi NNW 13.8 mph - N/A   Overcast
9:56 PM 64.9 °F 58.6 °F 80% 30.00 in 10.0 mi NNW 11.5 mph - N/A   Overcast
10:15 PM 64.6 °F 59.0 °F 82% 30.01 in 10.0 mi NW 11.5 mph 18.4 mph N/A   Overcast
10:37 PM 64.4 °F 59.2 °F 83% 30.02 in 10.0 mi NW 11.5 mph 18.4 mph N/A   Overcast
10:56 PM 63.5 °F 58.5 °F 84% 30.02 in 10.0 mi NW 15.0 mph 24.2 mph N/A   Overcast
11:15 PM 63.0 °F 58.3 °F 85% 30.02 in 10.0 mi NNW 15.0 mph 23.0 mph N/A   Overcast
11:16 PM 63.0 °F 58.3 °F 85% 30.02 in 10.0 mi NNW 16.1 mph 23.0 mph N/A   Overcast
11:35 PM 62.8 °F 58.1 °F 85% 30.02 in 10.0 mi NW 13.8 mph 19.6 mph N/A   Overcast
11:36 PM 62.8 °F 58.1 °F 85% 30.02 in 10.0 mi NW 12.7 mph 19.6 mph N/A   Overcast
11:58 PM 62.8 °F 58.1 °F 85% 30.03 in 10.0 mi NW 10.4 mph - N/A   Overcast